Weather History for Marysville, OH

Change the Weather History Date:

Wednesday, January 29, 2014

  Actual Average (KDLZ) Record (KDLZ)
Temperature  
Mean Temperature 0 °F -  
Max Temperature 17 °F 35 °F 60 °F (2013)
Min Temperature -17 °F 18 °F -10 °F (1963)
Degree Days  
Heating Degree Days 65    
Moisture  
Dew Point -8 °F    
Average Humidity 61    
Maximum Humidity 75    
Minimum Humidity 43    
Precipitation  
Precipitation 0.00 in - - ()
Sea Level Pressure  
Sea Level Pressure 30.25 in    
Wind  
Wind Speed 8 mph (SW)    
Max Wind Speed 17 mph    
Max Gust Speed 22 mph    
Visibility 10 miles    
Events      
Averages and records for this station are not official NWS values.
T = Trace of Precipitation, MM = Missing Value Source: NWS Daily Summary

Daily Weather History Graph

Daily Weather History Graph

Search for Another Location

Airport:

Trip Planner

Search our weather history database for the weather conditions in past years. The results will help you decide how hot, cold, wet, or windy it might be!

Date:

Astronomy

Jan. 29, 2014 Rise Set
Actual Time 7:45 AM EST 5:48 PM EST
Civil Twilight 7:16 AM EST 6:17 PM EST
Nautical Twilight 6:43 AM EST 6:50 PM EST
Astronomical Twilight 6:11 AM EST 7:22 PM EST
Moon 6:20 AM EST (1/29) 4:46 PM EST (1/29)
Length of Visible Light 11h 01m
Length of Day
10h 03m
Waning Crescent, 2% of the Moon is Illuminated
Jan 29
Waning Crescent
Jan 30
New
Feb 6
First Quarter
Feb 14
Full
Feb 22
Last Quarter

Hourly Weather History & Observations

Time (EST) Temp. Windchill Dew Point Humidity Pressure Visibility Wind Dir Wind Speed Gust Speed Precip Events Conditions
12:14 AM -17.0 °F -27.2 °F -22.7 °F 75% 30.27 in 10.0 mi SSW 3.5 mph - N/A   Clear
12:35 AM -13.5 °F -23.3 °F -19.5 °F 75% 30.27 in 10.0 mi SW 3.5 mph - N/A   Clear
12:54 AM -16.2 °F -28.8 °F -22.5 °F 73% 30.27 in 10.0 mi SW 4.6 mph - N/A   Clear
1:14 AM -14.8 °F -30.8 °F -20.9 °F 74% 30.27 in 10.0 mi SW 6.9 mph - N/A   Clear
1:35 AM -13.2 °F -27.2 °F -19.7 °F 73% 30.26 in 10.0 mi SW 5.8 mph - N/A   Clear
1:54 AM -15.5 °F -30.0 °F -22.0 °F 73% 30.26 in 10.0 mi SW 5.8 mph - N/A   Clear
2:14 AM -17.1 °F -29.9 °F -24.0 °F 71% 30.25 in 10.0 mi WSW 4.6 mph - N/A   Clear
2:35 AM -15.5 °F -31.6 °F -21.5 °F 75% 30.25 in 10.0 mi WSW 6.9 mph - N/A   Clear
2:54 AM -10.7 °F -25.8 °F -18.0 °F 70% 30.25 in 10.0 mi WSW 6.9 mph - N/A   Clear
3:14 AM -8.1 °F -25.3 °F -15.0 °F 72% 30.25 in 10.0 mi West 9.2 mph - N/A   Clear
3:35 AM -7.8 °F -24.8 °F -15.0 °F 71% 30.25 in 10.0 mi WSW 9.2 mph - N/A   Clear
3:54 AM -8.1 °F -24.1 °F -15.5 °F 70% 30.25 in 10.0 mi WSW 8.1 mph - N/A   Clear
4:14 AM -8.5 °F -26.8 °F -15.5 °F 71% 30.24 in 10.0 mi SW 10.4 mph - N/A   Clear
4:35 AM -5.8 °F -21.2 °F -13.9 °F 68% 30.23 in 10.0 mi WSW 8.1 mph - N/A   Clear
4:54 AM -6.3 °F -24.1 °F -14.1 °F 69% 30.24 in 10.0 mi SW 10.4 mph - N/A   Clear
5:14 AM -7.1 °F -21.4 °F -14.6 °F 70% 30.24 in 10.0 mi WSW 6.9 mph - N/A   Clear
5:34 AM -8.7 °F -24.7 °F -16.1 °F 70% 30.24 in 10.0 mi SW 8.1 mph - N/A   Clear
5:54 AM -7.1 °F -21.4 °F -14.4 °F 70% 30.24 in 10.0 mi WSW 6.9 mph - N/A   Clear
6:14 AM -7.2 °F -24.2 °F -14.3 °F 71% 30.24 in 10.0 mi SW 9.2 mph - N/A   Clear
6:34 AM -4.9 °F -24.1 °F -12.1 °F 71% 30.24 in 10.0 mi SW 12.7 mph - N/A   Clear
6:54 AM -4.4 °F -20.6 °F -11.9 °F 70% 30.24 in 10.0 mi WSW 9.2 mph - N/A   Clear
7:14 AM -4.2 °F -20.4 °F -11.7 °F 70% 30.24 in 10.0 mi WSW 9.2 mph - N/A   Clear
7:34 AM -5.4 °F -19.5 °F -13.0 °F 70% 30.24 in 10.0 mi SW 6.9 mph - N/A   Clear
7:54 AM -7.6 °F -23.4 °F -14.6 °F 71% 30.24 in 10.0 mi SW 8.1 mph - N/A   Clear
8:14 AM -6.5 °F -22.1 °F -13.2 °F 73% 30.24 in 10.0 mi SW 8.1 mph - N/A   Clear
8:34 AM -3.8 °F -19.9 °F -11.0 °F 71% 30.24 in 10.0 mi SW 9.2 mph - N/A   Clear
8:54 AM -2.0 °F -17.7 °F -10.1 °F 68% 30.24 in 10.0 mi SW 9.2 mph - N/A   Clear
9:14 AM 0.1 °F -15.1 °F -8.7 °F 66% 30.25 in 10.0 mi SW 9.2 mph - N/A   Clear
9:34 AM 1.9 °F -13.8 °F -7.8 °F 64% 30.26 in 10.0 mi SW 10.4 mph - N/A   Clear
9:54 AM 4.1 °F -9.2 °F -6.7 °F 61% 30.26 in 10.0 mi SW 8.1 mph - N/A   Clear
10:14 AM 6.6 °F -8.0 °F -6.0 °F 56% 30.27 in 10.0 mi WSW 10.4 mph - N/A   Clear
10:34 AM 8.2 °F -8.8 °F -5.4 °F 54% 30.27 in 10.0 mi WSW 15.0 mph - N/A   Clear
10:54 AM 9.0 °F -7.9 °F -4.9 °F 53% 30.28 in 10.0 mi West 15.0 mph - N/A   Clear
11:14 AM 10.0 °F -5.9 °F -4.5 °F 52% 30.27 in 10.0 mi West 13.8 mph 20.7 mph N/A   Clear
11:34 AM 11.3 °F -4.3 °F -3.5 °F 52% 30.27 in 10.0 mi West 13.8 mph 20.7 mph N/A   Clear
11:55 AM 12.2 °F -4.3 °F -3.6 °F 49% 30.26 in 10.0 mi WSW 16.1 mph 19.6 mph N/A   Clear
12:14 PM 13.1 °F -2.0 °F -2.7 °F 49% 30.25 in 10.0 mi WSW 13.8 mph 17.3 mph N/A   Clear
12:34 PM 14.0 °F -2.0 °F -2.9 °F 47% 30.25 in 10.0 mi WSW 16.1 mph - N/A   Clear
12:55 PM 14.9 °F 0.3 °F -2.0 °F 47% 30.25 in 10.0 mi WSW 13.8 mph 18.4 mph N/A   Clear
1:14 PM 15.4 °F 0.4 °F -2.0 °F 46% 30.24 in 10.0 mi West 15.0 mph 19.6 mph N/A   Clear
1:34 PM 16.2 °F 1.3 °F -1.7 °F 45% 30.23 in 10.0 mi WSW 15.0 mph - N/A   Clear
1:55 PM 16.3 °F 2.1 °F -1.8 °F 45% 30.24 in 10.0 mi West 13.8 mph - N/A   Clear
2:14 PM 16.7 °F 2.0 °F -1.1 °F 46% 30.24 in 10.0 mi West 15.0 mph 19.6 mph N/A   Clear
2:34 PM 16.7 °F 1.5 °F -1.8 °F 44% 30.23 in 10.0 mi West 16.1 mph - N/A   Clear
2:55 PM 17.2 °F 1.7 °F -1.7 °F 43% 30.22 in 10.0 mi West 17.3 mph 21.9 mph N/A   Clear
3:14 PM 17.6 °F 2.7 °F -1.5 °F 43% 30.24 in 10.0 mi WSW 16.1 mph - N/A   Clear
3:34 PM 17.6 °F 3.2 °F -1.7 °F 43% 30.25 in 10.0 mi West 15.0 mph - N/A   Clear
3:55 PM 17.6 °F 4.3 °F -1.1 °F 44% 30.25 in 10.0 mi West 12.7 mph - N/A   Clear
4:14 PM 17.6 °F 6.4 °F -0.8 °F 45% 30.25 in 10.0 mi West 9.2 mph - N/A   Clear
4:34 PM 17.4 °F 5.4 °F -0.9 °F 45% 30.26 in 10.0 mi West 10.4 mph - N/A   Clear
4:55 PM 16.7 °F 3.8 °F -0.9 °F 46% 30.26 in 10.0 mi West 11.5 mph - N/A   Clear
5:14 PM 16.3 °F 4.9 °F -0.9 °F 47% 30.25 in 10.0 mi WSW 9.2 mph - N/A   Clear
5:34 PM 15.1 °F 4.2 °F -1.3 °F 48% 30.25 in 10.0 mi WSW 8.1 mph - N/A   Clear
5:55 PM 11.8 °F 2.5 °F -2.2 °F 53% 30.25 in 10.0 mi WSW 5.8 mph - N/A   Clear
6:14 PM 8.6 °F 2.0 °F -4.2 °F 56% 30.25 in 10.0 mi SW 3.5 mph - N/A   Clear
6:34 PM 11.7 °F 2.3 °F -1.1 °F 57% 30.25 in 10.0 mi SW 5.8 mph - N/A   Clear
6:55 PM 3.6 °F -3.8 °F -7.2 °F 61% 30.26 in 10.0 mi SSW 3.5 mph - N/A   Clear
7:14 PM 0.9 °F - -7.8 °F 67% 30.27 in 10.0 mi Calm Calm - N/A   Clear
7:34 PM 1.0 °F -10.3 °F -7.4 °F 68% 30.27 in 10.0 mi SW 5.8 mph - N/A   Clear
7:54 PM 1.8 °F -10.8 °F -7.1 °F 67% 30.26 in 10.0 mi SSW 6.9 mph - N/A   Clear
8:14 PM 6.4 °F -6.3 °F -4.2 °F 62% 30.26 in 10.0 mi SW 8.1 mph - N/A   Clear
8:35 PM 7.7 °F -3.7 °F -3.1 °F 61% 30.26 in 10.0 mi SW 6.9 mph - N/A   Clear
8:54 PM 9.0 °F -2.2 °F -2.7 °F 59% 30.26 in 10.0 mi SW 6.9 mph - N/A   Clear
9:14 PM 7.9 °F -0.7 °F -2.9 °F 61% 30.26 in 10.0 mi SW 4.6 mph - N/A   Clear
9:34 PM 4.3 °F -7.8 °F -5.6 °F 64% 30.25 in 10.0 mi SW 6.9 mph - N/A   Clear
9:54 PM 5.2 °F -5.4 °F -5.3 °F 62% 30.25 in 10.0 mi SSW 5.8 mph - N/A   Clear
10:14 PM 6.6 °F -6.1 °F -4.2 °F 61% 30.25 in 10.0 mi SSW 8.1 mph - N/A   Clear
10:35 PM 8.2 °F -5.1 °F -2.9 °F 60% 30.25 in 10.0 mi SSW 9.2 mph - N/A   Clear
10:54 PM 9.1 °F -4.0 °F -2.4 °F 60% 30.24 in 10.0 mi SSW 9.2 mph - N/A   Clear
11:15 PM 9.3 °F -2.8 °F -2.4 °F 59% 30.24 in 10.0 mi SSW 8.1 mph - N/A   Clear
11:34 PM 8.4 °F -3.9 °F -2.7 °F 61% 30.24 in 10.0 mi SSW 8.1 mph - N/A   Clear
11:54 PM 7.7 °F -5.8 °F -3.1 °F 61% 30.24 in 10.0 mi South 9.2 mph - N/A   Clear